Current weather by "City, St" or "zip code"  
 

Current Conditions: Eureka Airport ASOS, NV

NULL


25.0 F

Last Updated on Feb 25 2024, 6:53 am PST
Humidity: 85%
Wind Speed: SW 4.6 mph
Barometer 30.11 in
Dewpoint: 21.0 F
Visibility: NULL mi
Precip: --
Heat Index: NA
Wind Chill: 19 F
Current conditions at:

Eureka Airport ASOS, NV (KP68)

Lat: 39.60139 Lon: 116.00556

Local Radar Image active severe weather and emergency alerts image image weather storm and storm spotter reports image weather observation monitoring service image
Local
Radar
Active
Alerts
Storm Reports Obs
Monitoring

Sign-up For Email & Text Message Weather Alert Notification Services



Advertise Here

Observation History for Eureka Airport ASOS, NV


Time Wind
(mph)
Vis
(mi)
Weather Precip (in) Temperature (F) Relative
Humidity
Wind
Chill
(F)
Heat
Index
(F)
Pressure
Air Dwpt altimeter
(in)
sea level
(mb)
Rmks
6:53 am PST SW 4.6 NULL NULL -- 25.0 21.0 85% 19 NA 30.11 1020.1
4:53 am PST S 5.8 NULL NULL -- 27.0 21.9 81% 20 NA 30.09 1017.1
1:53 am PST SE 4.6 NULL NULL -- 25.0 21.9 88% 19 NA 30.11 1017.8
12:53 am PST N 0.0 NULL NULL -- 25.0 21.9 88% NA NA 30.13 1018.6
10:53 pm PST E 3.5 NULL NULL -- 31.0 23.0 72% NA NA 30.12 1018.1
8:53 pm PST S 8.1 NULL NULL -- 32.0 25.0 75% 25 NA 30.11 1019.6
6:53 pm PST S 8.1 NULL NULL -- 37.0 26.1 65% 31 NA 30.10 1019.7
5:53 pm PST SE 3.5 NULL NULL -- 47.0 23.0 39% NA NA 30.09 1018.3
3:53 pm PST 4.6 NULL NULL -- 55.0 21.0 26% 54 NA 30.08 1016.7
12:53 pm PST N 0.0 NULL NULL -- 52.0 19.0 27% NA NA 30.12 1018.4
10:53 am PST NE 3.5 NULL NULL -- 46.0 27.0 47% NA NA 30.19 1021.3
9:53 am PST N 0.0 NULL NULL -- 39.0 27.0 62% NA NA 30.21 1023.0
8:53 am PST N 0.0 NULL NULL -- 34.0 26.1 73% NA NA 30.22 1023.7
7:53 am PST SW 3.5 NULL NULL -- 30.0 25.0 82% NA NA 30.21 1023.7

Regional Weather Observation


Eureka Airport ASOS, NV (KP68)

NULL
25.0 F

Austin Airport, NV (KTMT)

Fair
25.0 F

Elko, Elko Regional Airport, NV (KEKO)

Fair
25.0 F

Ely, Ely Airport, NV (KELY)

Fair
23.0 F

Winnemucca, Winnemucca Municipal Airport, NV (KWMC)

Fair
28.0 F

Wendover Airport, UT (KENV)

Fair
29.0 F

Advertise Here


Advertise Here